Triuchirapalli, India

4:52 PM IST on December 15, 2017 (GMT +0530)
Tiruchirappalli

Weather History for VOTR - March, 2012

Change the Weather History Date:

Friday, March 30, 2012

  Actual Average Record
Temperature  
Mean Temperature 90 °F -  
Max Temperature 103 °F 94 °F 103 °F (2014)
Min Temperature 78 °F 80 °F 68 °F (2014)
Cooling Degree Days 26    
Growing Degree Days 40 (Base 50)    
Moisture  
Dew Point 70 °F    
Average Humidity 55    
Maximum Humidity 83    
Minimum Humidity 16    
Precipitation  
Precipitation 0.00 in - - ()
Sea Level Pressure  
Sea Level Pressure 29.84 in    
Wind  
Wind Speed 5 mph ()    
Max Wind Speed 13 mph    
Max Gust Speed -    
Visibility 3.7 miles    
Events      
Averages and records for this station are not official NWS values.
T = Trace of Precipitation, MM = Missing Value Source: Averaged Metar Reports

Daily Weather History Graph

Daily Weather History Graph

Search for Another Location

Airport or City:

Trip Planner

Search our weather history database for the weather conditions in past years. The results will help you decide how hot, cold, wet, or windy it might be!

Date:

Astronomy

Mar. 30, 2012 Rise Set
Actual Time 6:13 AM IST 6:25 PM IST
Civil Twilight 5:52 AM IST 6:47 PM IST
Nautical Twilight 5:27 AM IST 7:11 PM IST
Astronomical Twilight 5:03 AM IST 7:36 PM IST
Moon 11:41 AM IST (3/30) No Moon Set
Length of Visible Light 12h 54m
Length of Day
12h 12m
Waxing Crescent, 45% of the Moon is Illuminated
Mar 30
Waxing Crescent
Mar 31
First Quarter
Apr 7
Full
Apr 13
Last Quarter
Apr 21
New

Hourly Weather History & Observations

Time (IST) Temp. Heat Index Dew Point Humidity Pressure Visibility Wind Dir Wind Speed Gust Speed Precip Events Conditions
12:10 AM 84.2 °F 89.6 °F 71.6 °F 66% 29.95 in 3.7 mi South 3.5 mph - N/A   Unknown
12:40 AM 84.2 °F 89.6 °F 71.6 °F 66% 29.92 in 3.7 mi SSW 3.5 mph - N/A   Unknown
1:10 AM 82.4 °F 87.2 °F 71.6 °F 70% 29.92 in 3.7 mi South 3.5 mph - N/A   Unknown
1:40 AM 82.4 °F 87.2 °F 71.6 °F 70% 29.89 in 3.7 mi SSW 4.6 mph - N/A   Unknown
2:10 AM 82.4 °F 87.2 °F 71.6 °F 70% 29.89 in 3.7 mi South 4.6 mph - N/A   Unknown
2:30 AM 82 °F - 73 °F 67% 29.88 in 2 mi SSW 3.5 mph - -   Haze
2:40 AM 82.4 °F 88.2 °F 73.4 °F 74% 29.89 in 3.7 mi SSW 4.6 mph - N/A   Unknown
3:10 AM 82.4 °F 88.2 °F 73.4 °F 74% 29.86 in 3.7 mi SSW 3.5 mph - N/A   Unknown
3:40 AM 82.4 °F - 37.4 °F 20% 29.86 in 3.7 mi SSW 3.5 mph - N/A   Unknown
4:10 AM 80.6 °F 85.4 °F 73.4 °F 79% 29.86 in 3.7 mi WSW 5.8 mph - N/A   Unknown
4:40 AM 80.6 °F 85.4 °F 73.4 °F 79% 29.86 in 3.7 mi SW 4.6 mph - N/A   Unknown
5:30 AM 80 °F - 74 °F 77% 29.87 in 1 mi SW 4.6 mph - -   Haze
5:40 AM 78.8 °F - 73.4 °F 83% 29.86 in 3.1 mi SW 4.6 mph - N/A   Haze
6:40 AM 80.6 °F 85.4 °F 73.4 °F 79% 29.89 in 1.9 mi WSW 5.8 mph - N/A   Haze
7:10 AM 80.6 °F 85.4 °F 73.4 °F 79% 29.92 in 1.9 mi West 4.6 mph - N/A   Haze
7:40 AM 82.4 °F 88.2 °F 73.4 °F 74% 29.92 in 2.5 mi West 4.6 mph - N/A   Haze
8:30 AM 86 °F - 71 °F 52% 29.91 in 2 mi 3.5 mph - -   Haze
8:40 AM 86.0 °F 91.8 °F 71.6 °F 62% 29.92 in 3.7 mi Variable 3.5 mph - N/A   Unknown
9:10 AM 87.8 °F 93.8 °F 71.6 °F 58% 29.92 in 3.7 mi SW 5.8 mph - N/A   Unknown
9:40 AM 89.6 °F 94.7 °F 69.8 °F 52% 29.92 in 3.7 mi West 4.6 mph - N/A   Partly Cloudy
10:10 AM 91.4 °F 96.8 °F 69.8 °F 49% 29.92 in 5.0 mi SW 4.6 mph - N/A   Partly Cloudy
10:40 AM 93.2 °F 98.8 °F 69.8 °F 46% 29.92 in 5.0 mi West 4.6 mph - N/A   Scattered Clouds
11:10 AM 93.2 °F 98.8 °F 69.8 °F 46% 29.89 in 5.0 mi Variable 4.6 mph - N/A   Scattered Clouds
11:30 AM 96 °F - 70 °F 33% 29.88 in 2 mi SW 4.6 mph - -   Haze
11:40 AM 95.0 °F 101.3 °F 69.8 °F 44% 29.89 in 5.0 mi SW 4.6 mph - N/A   Scattered Clouds
12:10 PM 96.8 °F 103.1 °F 69.8 °F 41% 29.86 in 5.0 mi WNW 4.6 mph - N/A   Scattered Clouds
12:40 PM 96.8 °F 103.1 °F 69.8 °F 41% 29.83 in 5.0 mi SW 5.8 mph - N/A   Scattered Clouds
1:10 PM 96.8 °F 103.1 °F 69.8 °F 41% 29.80 in 5.0 mi NNW 4.6 mph - N/A   Scattered Clouds
1:40 PM 96.8 °F 103.1 °F 69.8 °F 41% 29.80 in 5.0 mi Variable 3.5 mph - N/A   Scattered Clouds
2:10 PM 98.6 °F 105.5 °F 69.8 °F 39% 29.77 in 5.0 mi SW 5.8 mph - N/A   Partly Cloudy
2:30 PM 102 °F - 60 °F 16% 29.76 in 2 mi South 5.8 mph - -   Haze
3:10 PM 102.2 °F 105.5 °F 64.4 °F 29% 29.74 in 5.0 mi SSE 3.5 mph - N/A   Partly Cloudy
3:40 PM 102.2 °F 105.5 °F 64.4 °F 29% 29.74 in 5.0 mi ESE 3.5 mph - N/A   Partly Cloudy
4:10 PM 102.2 °F 105.5 °F 64.4 °F 29% 29.74 in 5.0 mi South 4.6 mph - N/A   Partly Cloudy
4:40 PM 102.2 °F 105.5 °F 64.4 °F 29% 29.74 in 5.0 mi SSE 4.6 mph - N/A   Partly Cloudy
5:10 PM 100.4 °F 103.6 °F 64.4 °F 31% 29.74 in 5.0 mi SE 5.8 mph - N/A   Partly Cloudy
5:30 PM 99 °F - 66 °F 25% 29.72 in 2 mi SE 11.5 mph - -   Haze
5:40 PM 98.6 °F 104.1 °F 68.0 °F 37% 29.74 in 5.0 mi SSE 12.7 mph - N/A   Partly Cloudy
6:10 PM 93.2 °F 100.5 °F 71.6 °F 49% 29.74 in 3.7 mi SSE 10.4 mph - N/A   Partly Cloudy
6:40 PM 91.4 °F 98.4 °F 71.6 °F 52% 29.74 in 3.7 mi SSE 11.5 mph - N/A   Unknown
7:10 PM 91.4 °F 98.4 °F 71.6 °F 52% 29.77 in 3.7 mi SSE 9.2 mph - N/A   Unknown
7:40 PM 91.4 °F 100.1 °F 73.4 °F 55% 29.77 in 3.7 mi South 9.2 mph - N/A   Unknown
8:10 PM 87.8 °F 95.6 °F 73.4 °F 62% 29.77 in 3.7 mi SSE 9.2 mph - N/A   Unknown
8:30 PM 87 °F - 72 °F 51% 29.78 in 2 mi SSE 9.2 mph - -   Haze
8:40 PM 87.8 °F 95.6 °F 73.4 °F 62% 29.80 in 3.7 mi SSE 9.2 mph - N/A   Unknown
9:10 PM 86.0 °F 93.4 °F 73.4 °F 66% 29.80 in 3.7 mi SSE 9.2 mph - N/A   Unknown
9:40 PM 84.2 °F 90.9 °F 73.4 °F 70% 29.80 in 3.7 mi SSE 6.9 mph - N/A   Unknown
10:10 PM 84.2 °F 90.9 °F 73.4 °F 70% 29.83 in 3.7 mi South 5.8 mph - N/A   Unknown
10:40 PM 84.2 °F 89.6 °F 71.6 °F 66% 29.83 in 3.7 mi SSW 3.5 mph - N/A   Unknown
11:10 PM 84.2 °F 89.6 °F 71.6 °F 66% 29.86 in 3.7 mi South 3.5 mph - N/A   Unknown
11:30 PM 84 °F - 71 °F 56% 29.85 in 2 mi South 3.5 mph - -   Haze
11:40 PM 84.2 °F 89.6 °F 71.6 °F 66% 29.86 in 3.7 mi South 3.5 mph - N/A   Unknown